Theta_e
316 307 310 301 293 291 288 293 297 293 298 306 307 307 303 303 303 296 319 329 330 329 331 331 333 330 328 326 325 325 324 324 325 325 325 325 325 326 327 327 329 331 333 337 339 340 340 341 341
310 311 302 295 287 283 287 290 292 298 304 306 307 305 302 301 312 316 317 328 329 328 327 327 332 328 326 325 324 323 322 323 323 323 322 322 322 321 321 322 324 326 328 331 334 336 338 339 339
312 310 296 289 285 283 285 290 293 299 303 302 302 305 301 304 312 317 321 327 327 326 324 326 330 326 324 323 322 321 322 322 321 321 320 320 320 319 319 319 319 320 323 325 329 332 333 337 338
305 299 294 288 286 290 290 290 295 297 303 305 304 300 305 311 313 320 324 324 321 320 322 327 327 324 323 322 321 321 321 321 320 319 318 318 317 317 317 317 317 318 318 320 323 328 330 330 333
301 296 288 285 286 291 291 292 294 292 294 302 304 300 303 312 320 321 322 321 317 316 320 322 327 323 321 320 320 319 319 318 317 317 316 316 315 314 315 315 315 315 316 318 319 321 326 326 329
294 293 286 284 287 293 292 295 294 293 295 302 301 301 304 313 317 319 321 318 318 316 318 319 323 323 321 319 318 317 316 316 315 314 314 313 313 313 313 313 314 314 316 317 318 318 320 323 326
295 289 285 286 288 289 294 299 294 295 296 299 303 298 305 309 315 319 320 317 317 317 315 314 316 318 320 320 318 315 314 313 312 311 311 312 313 313 313 312 312 313 314 315 315 316 317 319 322
295 291 286 286 288 290 295 296 297 296 295 303 304 298 300 309 316 317 317 315 315 315 313 311 311 311 309 309 315 316 313 310 308 309 309 312 312 312 311 310 310 312 314 314 313 314 315 317 319
295 287 284 287 288 289 295 294 298 298 296 299 303 301 309 315 316 314 313 312 312 313 312 310 309 309 308 306 308 312 313 311 310 311 314 308 303 303 305 309 312 312 313 315 315 315 316 316 317
290 285 288 291 289 288 292 291 292 293 292 293 296 306 312 313 312 311 310 310 309 310 310 309 308 307 307 309 304 303 306 304 306 305 303 304 302 303 307 306 312 312 313 314 315 316 318 318 312
292 287 292 292 293 293 292 292 292 290 291 294 293 298 308 309 310 311 311 311 310 311 311 309 308 306 305 303 303 304 304 303 304 302 302 301 302 301 302 302 303 304 308 306 308 308 309 312 313
290 294 294 295 295 293 291 293 292 292 294 296 295 298 307 307 308 310 311 312 312 311 311 309 308 306 304 303 303 304 303 302 302 301 301 300 299 300 301 302 302 303 304 304 305 306 308 310 312
292 293 295 295 293 292 293 291 290 291 294 296 297 299 303 305 306 309 311 312 313 311 311 308 307 306 306 305 304 303 302 301 300 299 300 300 300 300 301 301 302 302 304 305 305 305 306 309 311
294 294 293 294 293 293 291 290 290 292 294 294 296 296 297 299 303 304 308 310 311 312 310 308 308 307 307 305 304 303 301 299 299 298 299 302 301 300 300 300 301 302 304 306 306 306 306 307 310
295 291 292 293 292 293 290 288 288 294 294 293 294 295 297 298 299 301 306 309 311 311 310 308 308 308 306 305 303 302 300 300 298 299 301 302 302 300 299 300 300 303 306 307 308 309 308 308 312
290 289 284 290 292 292 291 285 291 293 291 293 294 293 295 297 298 299 305 310 311 310 309 309 310 306 305 303 301 299 299 297 298 300 300 302 302 301 300 300 300 305 306 307 307 307 307 307 309
287 281 284 288 292 291 289 286 292 293 292 292 292 293 293 294 295 296 305 309 310 309 307 305 306 304 303 301 299 298 298 298 300 300 300 301 302 303 301 301 304 307 308 306 310 307 306 305 307
282 282 284 284 289 289 287 288 292 294 293 291 290 290 291 293 294 299 305 308 308 305 304 305 304 302 301 299 297 296 297 299 300 300 301 302 303 305 304 304 305 306 307 308 309 310 308 309 307
286 284 282 285 289 286 285 286 289 291 290 290 289 290 290 293 294 301 304 305 303 302 303 303 302 300 298 296 295 294 295 298 299 301 303 303 304 305 304 304 305 308 307 308 311 312 309 308 307
286 284 284 286 289 286 285 287 291 291 289 290 290 289 290 291 294 298 300 301 301 301 301 301 301 299 298 295 295 296 297 297 298 301 302 303 304 305 305 304 304 305 306 309 310 312 308 309 311
286 284 284 285 287 287 284 285 289 291 292 291 291 290 290 291 294 296 298 299 299 299 299 300 299 297 295 295 297 297 298 297 298 299 300 302 304 304 304 304 303 303 306 305 309 311 310 307 309
283 288 287 286 283 280 285 279 285 289 289 290 290 289 289 291 294 296 298 298 298 298 298 298 296 295 295 295 295 296 296 295 297 298 299 300 303 303 304 304 304 303 304 307 308 312 311 307 306
285 288 287 286 283 281 282 280 285 288 288 289 289 290 291 292 294 296 297 299 298 298 295 294 295 294 294 294 295 295 295 296 297 297 298 299 301 303 304 304 305 305 306 306 308 312 310 310 306
290 289 289 287 283 273 281 281 282 285 287 288 289 290 291 292 294 295 297 298 296 295 294 293 293 293 294 295 296 296 295 295 295 296 296 297 299 301 302 303 302 304 306 307 309 311 311 308 305
288 283 273 272 269 273 281 280 283 287 288 288 290 290 291 292 293 294 295 295 295 294 293 293 293 292 293 294 295 296 296 296 296 296 296 296 297 298 299 301 301 302 306 308 311 311 311 309 307
285 284 276 272 273 277 280 278 283 289 289 290 290 290 291 291 293 294 294 294 294 295 294 294 293 292 292 293 294 296 296 295 296 296 296 296 296 298 300 301 301 304 307 309 311 311 310 310 308
284 281 286 278 273 275 280 283 288 287 287 287 288 290 290 291 292 294 295 294 294 294 294 293 293 292 292 293 294 295 296 296 295 296 297 297 297 299 300 301 302 306 307 309 310 310 309 308 306
284 287 279 278 272 272 276 278 282 284 286 288 288 286 287 290 292 293 294 294 294 294 294 293 293 292 292 293 294 295 295 296 296 296 296 297 298 300 300 301 302 304 306 309 307 307 308 306 306
282 280 283 283 281 276 274 279 287 287 288 288 288 289 289 288 291 292 293 294 294 294 294 293 292 292 291 292 294 294 295 296 296 296 296 298 300 300 301 301 302 302 305 308 309 309 308 306 306
284 283 284 279 276 279 280 280 290 289 289 290 289 291 291 291 292 290 292 293 293 293 293 293 292 292 291 292 294 295 295 295 295 296 297 299 300 301 301 301 302 303 307 309 309 308 308 306 305
Wind_Speed
8 8 2 5 5 5 4 7 1 3 4 1 2 6 4 1 1 4 3 12 15 12 9 8 11 12 11 11 11 10 10 10 10 10 10 10 9 9 9 8 9 9 9 11 10 9 7 7 7
5 6 5 2 5 3 6 3 4 4 3 3 5 3 4 3 4 6 4 11 15 12 9 7 11 11 11 11 11 10 10 9 10 10 9 9 9 9 9 8 9 9 9 9 10 9 8 7 8
5 2 4 4 3 5 3 2 5 3 5 3 3 3 2 4 4 8 3 15 14 12 10 8 11 11 11 10 11 10 10 9 9 9 9 8 9 9 9 9 9 9 9 9 9 8 7 7 8
3 6 5 5 6 9 3 2 4 3 4 4 3 3 4 3 4 8 8 12 13 11 10 10 11 11 11 11 10 9 9 9 9 8 8 8 8 9 9 9 10 9 10 9 9 9 9 9 7
4 3 3 1 6 8 3 2 4 2 1 2 4 1 3 3 8 10 10 11 14 8 8 7 10 10 11 11 10 9 8 8 7 8 8 8 8 8 8 8 9 9 9 9 9 9 9 9 10
4 3 3 3 5 7 3 4 3 2 1 4 3 3 3 5 7 7 9 10 13 12 8 7 9 9 9 10 9 8 7 7 6 7 7 7 7 7 8 8 9 8 10 11 10 10 9 9 10
4 4 4 4 6 3 2 7 4 2 3 2 2 4 3 4 7 8 8 9 12 11 9 7 6 7 9 8 7 7 6 5 5 6 5 7 8 7 7 7 7 9 12 12 11 11 10 10 11
4 4 4 4 3 1 2 3 1 3 2 4 1 3 5 4 8 8 8 8 9 9 8 7 6 6 6 5 7 6 5 3 2 1 3 7 9 10 7 6 10 10 11 11 11 12 12 12 11
3 4 3 4 3 1 5 4 4 2 1 2 2 4 7 10 9 7 6 5 5 6 7 7 7 6 6 6 5 5 4 3 1 1 0 6 5 6 7 9 12 12 12 12 13 12 12 12 11
4 4 6 1 1 0 4 3 4 3 4 4 3 6 6 9 8 9 8 7 6 6 5 7 7 7 7 5 5 4 3 1 1 3 5 4 5 5 6 6 9 9 10 12 13 14 11 8 4
5 6 2 0 3 1 3 6 3 3 5 9 4 6 7 5 7 8 7 8 8 7 5 6 7 6 6 4 3 2 1 2 3 5 4 4 4 4 4 3 4 4 5 3 5 6 4 5 4
2 7 4 2 1 2 3 6 7 7 10 5 6 3 10 10 9 10 9 9 8 8 9 8 7 6 5 3 3 2 3 3 3 4 5 4 3 4 4 3 5 4 4 6 5 3 5 5 6
5 5 4 6 3 5 2 7 7 11 13 10 9 4 11 10 10 8 9 8 8 9 8 8 7 6 5 5 3 3 4 4 3 4 4 3 4 4 4 4 4 4 4 4 5 5 4 5 5
0 3 7 7 5 3 4 5 3 9 7 7 6 6 9 9 11 7 8 8 8 8 8 8 8 6 6 4 4 4 4 4 4 3 3 5 3 3 3 3 4 4 4 5 4 5 5 5 4
1 4 7 6 5 5 2 7 9 14 7 7 5 6 8 10 9 9 9 8 9 7 9 8 7 6 6 6 5 4 4 3 2 2 4 4 4 2 3 3 4 4 4 5 5 6 4 4 3
2 2 3 1 4 1 2 9 4 2 5 7 8 8 8 9 9 8 8 7 8 9 9 7 7 7 7 6 4 4 4 2 1 2 3 3 2 2 3 3 3 4 4 4 4 4 5 3 4
1 3 4 2 4 3 3 7 6 1 3 9 8 8 8 7 5 5 8 9 8 10 10 8 7 8 7 7 4 4 4 2 1 3 2 4 1 3 3 3 3 4 4 4 4 4 2 2 3
6 4 5 4 4 3 4 13 15 16 8 12 10 8 1 7 6 7 8 8 9 9 9 9 6 8 7 5 3 2 2 1 2 2 2 2 2 3 4 3 5 4 4 4 4 4 3 3 5
4 2 2 0 2 3 6 10 16 10 8 11 7 8 7 8 5 7 7 9 10 8 9 8 8 6 5 2 3 1 1 1 1 1 3 4 3 5 5 3 4 4 3 5 6 1 3 2 1
4 2 4 3 3 1 6 15 18 12 6 7 8 8 9 7 7 7 7 7 7 8 8 7 7 6 4 3 2 2 2 1 1 0 1 3 2 3 2 4 4 5 3 6 7 3 2 1 2
5 5 4 3 2 3 4 10 5 3 5 7 6 5 5 10 10 7 7 7 8 8 8 7 7 7 5 5 3 3 3 3 2 2 2 2 1 2 3 4 4 5 4 3 5 3 2 2 3
4 4 5 3 3 4 3 6 7 2 2 3 6 6 6 6 6 6 7 6 7 6 7 8 7 7 5 5 3 3 2 2 2 2 0 2 2 2 3 4 5 4 3 3 3 5 2 3 3
5 1 6 3 3 3 3 3 10 2 4 1 4 6 7 7 8 8 8 8 7 7 7 7 7 7 5 4 4 3 2 1 1 1 1 2 2 2 3 5 4 4 3 4 4 3 2 2 2
7 6 9 6 4 2 7 7 7 2 1 2 3 6 8 8 7 7 6 8 6 6 7 7 7 5 5 3 3 4 4 3 1 0 1 2 2 2 4 4 4 5 5 5 3 3 5 3 4
4 6 4 5 4 7 4 3 9 3 1 1 6 7 7 8 8 7 8 8 7 8 7 6 7 6 5 5 4 3 4 3 2 2 2 2 2 2 3 4 4 3 5 4 3 3 5 4 5
6 6 7 9 5 4 4 7 6 1 3 4 6 7 6 7 7 8 8 7 7 8 7 7 7 6 6 5 5 4 3 2 1 2 2 2 1 3 2 3 4 5 5 4 3 3 3 4 5
7 5 5 7 2 4 5 4 3 4 6 6 6 6 6 6 7 8 7 7 8 8 8 8 8 7 7 6 5 4 4 3 2 2 1 1 0 3 3 2 3 4 4 3 4 4 7 5 5
2 3 4 3 4 3 4 4 5 3 4 4 5 5 2 5 6 7 7 8 7 7 7 7 7 8 7 7 6 5 5 4 3 2 1 1 0 2 3 2 3 3 4 3 5 4 6 9 4
3 2 2 4 4 6 2 6 4 8 7 7 4 3 4 2 6 7 7 7 8 6 7 7 7 7 7 7 6 6 5 5 3 3 2 2 1 1 2 2 2 3 3 3 4 5 6 8 7
0 5 5 6 5 1 3 5 5 8 7 7 3 3 3 3 3 4 7 8 7 8 7 7 6 7 7 6 6 6 5 4 4 3 4 2 2 1 2 2 1 1 3 2 4 4 6 9 9
Wind_Direction
317 300 169 37 48 68 269 271 213 57 57 10 48 85 167 103 251 221 225 114 123 127 128 124 128 121 115 107 97 93 89 85 78 72 66 59 52 46 40 29 23 11 3 348 356 5 358 12 358
318 319 40 79 87 55 271 254 19 33 130 96 69 46 40 104 109 135 99 131 126 128 119 113 126 125 119 112 107 99 93 90 83 76 68 61 53 45 38 29 18 10 2 355 338 331 0 16 17
303 191 82 101 146 187 225 31 119 140 100 67 66 38 104 135 120 146 174 126 128 127 127 129 132 128 119 111 108 108 102 97 88 79 71 61 48 36 27 21 15 7 360 350 339 333 328 9 22
351 8 17 88 250 264 251 220 111 84 44 87 114 64 60 12 127 152 141 118 104 113 122 132 136 131 123 116 112 106 106 99 90 79 64 51 38 26 19 11 5 1 353 346 340 333 326 328 350
25 63 55 221 257 267 317 120 83 42 112 162 130 104 90 42 105 125 124 114 114 118 122 128 135 132 127 126 120 116 107 94 81 68 52 39 25 15 7 3 356 350 348 341 334 324 321 318 326
9 91 60 250 252 271 72 353 90 39 285 185 136 98 161 148 115 147 127 123 130 134 134 133 131 134 133 126 126 122 112 101 81 60 43 23 8 7 5 3 353 350 346 335 328 319 310 305 307
115 88 223 259 250 330 24 326 50 360 11 94 227 114 155 165 156 145 136 127 131 133 133 133 137 137 123 125 128 121 107 92 71 52 36 12 359 351 345 353 357 334 327 321 316 310 304 294 285
111 98 287 248 261 257 327 17 50 46 315 286 117 168 182 178 148 133 116 117 124 134 139 151 152 147 142 143 135 121 117 109 88 65 27 357 14 11 1 358 329 333 330 323 312 302 295 287 280
53 62 256 262 3 88 355 48 334 295 280 310 249 172 163 147 127 113 113 103 119 138 151 150 167 167 162 154 156 153 165 188 227 313 336 25 3 355 342 333 329 319 324 323 322 312 296 288 282
111 138 226 280 86 316 326 49 322 340 319 269 279 45 111 135 140 148 159 161 154 166 168 157 165 162 165 164 155 161 208 205 193 67 48 33 12 346 357 349 347 353 322 315 317 325 320 293 270
195 199 219 19 152 53 324 317 298 226 256 226 176 163 171 158 159 167 180 180 182 177 171 170 159 164 162 125 149 149 138 70 49 54 47 38 17 357 353 348 339 330 323 319 314 318 310 294 264
211 240 270 259 101 29 310 317 299 232 230 220 234 195 172 173 183 187 190 189 179 180 180 171 168 159 161 125 142 114 99 65 55 23 42 43 9 359 349 343 337 331 318 315 322 313 311 293 297
186 262 292 311 263 240 245 254 248 264 262 263 275 221 190 190 193 201 190 189 177 173 176 169 156 160 146 124 101 95 78 68 47 39 35 44 24 358 346 342 337 329 326 321 325 322 314 315 304
295 298 283 277 262 237 234 264 40 267 272 236 211 215 209 193 192 195 185 187 172 163 158 161 152 154 132 117 98 89 81 63 53 46 29 43 29 1 3 338 332 336 336 332 332 315 306 296 301
359 314 296 251 224 219 89 290 223 251 268 291 250 231 192 212 200 194 185 171 158 155 142 153 146 126 119 107 104 95 80 72 67 48 53 57 44 27 19 359 342 333 322 330 324 321 313 303 320
267 171 331 215 145 152 112 268 284 278 179 248 240 243 222 208 201 192 176 148 148 132 132 129 119 116 108 105 96 95 87 81 105 56 77 72 47 1 13 341 326 318 335 334 312 314 326 345 22
266 233 198 251 213 120 182 274 275 60 209 257 256 250 221 212 196 168 152 139 137 128 120 116 114 114 111 102 97 95 91 93 80 74 82 14 358 351 7 341 322 349 343 315 326 322 318 47 48
188 218 250 224 204 181 219 259 270 276 264 257 251 262 211 167 167 142 128 121 120 115 115 120 113 114 105 98 92 69 89 109 90 96 46 23 307 15 42 12 353 345 344 321 310 322 40 84 91
99 169 307 94 248 240 248 276 276 275 248 265 259 152 113 90 100 110 106 109 105 109 117 121 121 133 119 113 110 67 165 161 56 88 52 315 12 33 25 336 354 325 347 317 314 7 81 64 167
261 201 255 283 178 227 309 292 286 284 247 246 172 152 136 115 96 105 116 110 114 131 125 128 134 148 141 133 149 145 164 135 173 137 81 310 32 42 5 329 347 328 331 343 344 346 113 126 302
194 176 207 214 314 270 16 292 312 6 92 67 64 125 120 141 141 134 123 126 126 135 145 142 148 138 131 131 115 71 43 21 16 10 55 315 339 15 331 346 4 344 334 333 328 329 190 120 46
178 213 185 131 72 234 122 279 307 269 100 100 114 124 146 146 134 142 138 133 141 154 142 137 138 133 139 147 131 138 159 168 219 135 282 323 311 5 342 347 9 348 320 323 342 328 149 93 94
210 47 136 119 140 43 287 95 267 235 46 167 188 145 162 174 158 161 158 149 147 142 140 138 132 126 142 154 150 139 109 123 177 105 322 301 289 0 16 1 358 333 316 323 329 7 97 102 94
146 73 40 48 72 16 232 159 278 276 160 95 116 158 155 163 161 160 148 130 132 132 136 140 138 144 154 154 134 134 146 151 123 154 35 317 295 12 16 13 356 334 321 329 324 23 136 98 88
87 91 17 2 8 219 318 124 250 268 226 131 195 170 163 151 154 155 145 146 145 151 154 156 152 158 169 160 161 151 150 161 183 163 136 38 330 345 352 11 353 337 324 330 357 65 99 110 115
171 159 158 197 193 231 349 226 259 3 325 102 82 151 152 154 159 169 164 165 165 170 170 170 169 169 177 174 180 159 159 165 183 164 142 119 292 303 329 3 355 353 338 338 43 82 72 110 116
185 178 171 104 37 67 210 266 290 44 47 43 79 134 174 180 173 179 180 177 180 183 185 181 178 180 180 188 175 165 175 168 160 155 120 127 278 287 322 12 12 5 354 355 71 95 100 82 86
150 172 100 343 140 226 286 231 224 153 113 77 54 57 144 187 178 184 189 186 194 191 185 187 184 179 179 181 176 176 182 182 181 143 216 187 255 294 315 352 17 16 8 4 102 90 110 116 109
149 176 214 125 152 164 176 254 217 161 160 134 109 73 51 180 200 194 197 193 189 183 185 190 187 180 180 180 176 167 183 176 192 186 229 217 166 254 289 313 28 13 30 321 119 114 111 115 115
14 195 171 137 241 242 142 264 142 146 147 129 109 25 358 43 39 212 196 185 182 187 187 195 191 186 185 183 172 175 177 181 194 215 234 179 137 275 241 292 349 19 48 171 135 126 122 125 124